Weather History for Buffalo, NY

Change the Weather History Date:

Friday, November 23, 2012

  Actual Average Record
Temperature  
Mean Temperature 44 °F 38 °F  
Max Temperature 54 °F 45 °F 70 °F (1979)
Min Temperature 34 °F 32 °F 6 °F (1880)
Degree Days  
Heating Degree Days 21 27  
Month to date heating degree days 543 530  
Since 1 July heating degree days 1060 1135  
Cooling Degree Days 0 0  
Month to date cooling degree days 0 0  
Year to date cooling degree days 875 544  
Moisture  
Dew Point 35 °F    
Average Humidity 66    
Maximum Humidity 86    
Minimum Humidity 45    
Precipitation  
Precipitation 0.03 in 0.13 in 1.36 in (1886)
Month to date precipitation 0.83 3.09  
Year to date precipitation 28.94 35.67  
Snow  
Snow 0.00 in 0.40 in 9.00 in (1945)
Month to date snowfall T 5.0  
Since 1 July snowfall T 5.9  
Since 1 September snowfall T 5.9  
Snow Depth 0.00 in    
Sea Level Pressure  
Sea Level Pressure 29.74 in    
Wind  
Wind Speed 21 mph (SW)    
Max Wind Speed 36 mph    
Max Gust Speed 47 mph    
Visibility 9 miles    
Events Rain , Snow    
T = Trace of Precipitation, MM = Missing Value Source: NWS Daily Summary

Daily Weather History Graph

Daily Weather History Graph

Search for Another Location

Airport:

Trip Planner

Search our weather history database for the weather conditions in past years. The results will help you decide how hot, cold, wet, or windy it might be!

Date:

Astronomy

Nov. 23, 2012 Rise Set
Actual Time 7:17 AM EST 4:45 PM EST
Civil Twilight 6:46 AM EST 5:16 PM EST
Nautical Twilight 6:11 AM EST 5:51 PM EST
Astronomical Twilight 5:37 AM EST 6:24 PM EST
Moon 2:04 PM EST (11/23) 2:28 AM EST (11/23)
Length of Visible Light 10h 29m
Length of Day
9h 27m
Waxing Gibbous, 79% of the Moon is Illuminated
Nov 23
Waxing Gibbous
Nov 28
Full
Dec 6
Last Quarter
Dec 13
New
Dec 20
First Quarter

Hourly Weather History & Observations

Time (EST) Temp. Windchill Dew Point Humidity Pressure Visibility Wind Dir Wind Speed Gust Speed Precip Events Conditions
12:54 AM 52.0 °F - 32.0 °F 47% 29.91 in 10.0 mi SSW 18.4 mph 26.5 mph N/A   Scattered Clouds
1:54 AM 53.1 °F - 32.0 °F 45% 29.88 in 10.0 mi SSW 17.3 mph - N/A   Mostly Cloudy
2:54 AM 54.0 °F - 33.1 °F 45% 29.85 in 10.0 mi SSW 18.4 mph 27.6 mph N/A   Mostly Cloudy
3:54 AM 54.0 °F - 33.1 °F 45% 29.82 in 10.0 mi SSW 19.6 mph 26.5 mph N/A   Mostly Cloudy
4:54 AM 53.1 °F - 34.0 °F 48% 29.79 in 10.0 mi SSW 18.4 mph - N/A   Mostly Cloudy
5:54 AM 52.0 °F - 33.1 °F 49% 29.75 in 10.0 mi SSW 16.1 mph - N/A   Mostly Cloudy
6:54 AM 51.1 °F - 34.0 °F 52% 29.74 in 10.0 mi SSW 16.1 mph 24.2 mph N/A   Mostly Cloudy
7:54 AM 52.0 °F - 35.1 °F 53% 29.73 in 10.0 mi SSW 17.3 mph 31.1 mph N/A   Mostly Cloudy
8:19 AM 51.8 °F - 35.6 °F 54% 29.72 in 10.0 mi SSW 19.6 mph 25.3 mph 0.00 in Rain Light Rain
8:54 AM 50.0 °F - 39.9 °F 68% 29.72 in 8.0 mi SSW 17.3 mph 26.5 mph 0.00 in Rain Light Rain
9:54 AM 48.9 °F - 44.1 °F 83% 29.72 in 4.0 mi SSW 15.0 mph 24.2 mph 0.00 in Rain Light Rain
10:32 AM 48.2 °F - 44.6 °F 87% 29.70 in 6.0 mi SSW 18.4 mph 25.3 mph 0.02 in Rain Light Rain
10:54 AM 48.9 °F - 45.0 °F 86% 29.70 in 10.0 mi SSW 18.4 mph - 0.03 in Rain Light Rain
11:06 AM 48.2 °F - 44.6 °F 87% 29.68 in 10.0 mi SSW 20.7 mph 31.1 mph 0.00 in Rain Light Rain
11:54 AM 51.1 °F - 45.0 °F 80% 29.68 in 10.0 mi SSW 21.9 mph 28.8 mph 0.00 in   Overcast
12:32 PM 50.0 °F - 44.6 °F 82% 29.66 in 10.0 mi WSW 25.3 mph 40.3 mph N/A   Mostly Cloudy
12:54 PM 48.9 °F - 42.1 °F 77% 29.67 in 10.0 mi WSW 24.2 mph 42.6 mph N/A   Mostly Cloudy
1:54 PM 46.9 °F - 37.0 °F 68% 29.68 in 10.0 mi SW 33.4 mph 46.0 mph N/A   Mostly Cloudy
2:54 PM 46.0 °F 37.8 °F 35.1 °F 66% 29.68 in 10.0 mi WSW 23.0 mph 36.8 mph N/A   Mostly Cloudy
3:54 PM 45.0 °F 36.4 °F 32.0 °F 60% 29.70 in 10.0 mi WSW 23.0 mph 32.2 mph N/A   Mostly Cloudy
4:54 PM 44.1 °F 34.4 °F 32.0 °F 63% 29.70 in 10.0 mi West 27.6 mph 42.6 mph N/A   Overcast
5:54 PM 41.0 °F 30.5 °F 33.1 °F 73% 29.71 in 10.0 mi WSW 26.5 mph 47.2 mph N/A   Overcast
6:54 PM 39.0 °F 28.3 °F 34.0 °F 82% 29.72 in 10.0 mi WSW 24.2 mph 36.8 mph 0.00 in Rain Light Rain
7:54 PM 36.0 °F 25.6 °F 30.0 °F 79% 29.76 in 10.0 mi West 18.4 mph 27.6 mph 0.00 in   Overcast
8:54 PM 35.1 °F 23.0 °F 26.1 °F 70% 29.77 in 9.0 mi West 24.2 mph 35.7 mph 0.00 in   Overcast
9:54 PM 35.1 °F 23.5 °F 24.1 °F 64% 29.77 in 10.0 mi West 21.9 mph 31.1 mph N/A   Overcast
10:54 PM 35.1 °F 23.5 °F 23.0 °F 61% 29.76 in 10.0 mi WSW 21.9 mph 36.8 mph N/A   Overcast
11:54 PM 35.1 °F 23.5 °F 23.0 °F 61% 29.77 in 9.0 mi West 21.9 mph 38.0 mph N/A   Overcast